Tracking 29487 objects as of 10-Sep-2024
HD Live streaming from Space Station
objects crossing your sky now

OBJECT D

Track OBJECT D now!
10-day predictions


NORAD ID: 51949
Int'l Code: 2022-023D
Perigee: 460.9 km
Apogee: 574.8 km
Inclination: 63.5 °
Period: 94.8 minutes
Semi major axis: 6888 km
RCS: Unknown
Launch date: March 5, 2022
Source: People's Republic of China (PRC)
Launch site: Xichang Space Center, China (XSC)
Your satellite tracking list
Your tracking list is empty




NASA's NSSDC Master Catalog

Two Line Element Set (TLE):
1 51949U 22023D   24254.20843448  .00059683  00000-0  26280-2 0  9998
2 51949  63.4819 303.7164 0082615 339.3463  20.4316 15.18391834139785
Source of the keplerian elements: AFSPC